This is the latest recevied weather packets stored in our database for station/object GBTWP-2. If no packets are shown the sender has not sent any weather packets the latest 10 day(s).
| Time | Temp. | Humidity | Pressure | Rain* | Wind** | Luminosity | Snow |
|---|---|---|---|---|---|---|---|
| 1788265620 | 23.33° C | 88% | 1017.7 hPa | 0 mm | - | 71 W/m² | - |
| 1788265320 | 22.78° C | 90% | 1017.5 hPa | 0 mm | - | 82 W/m² | - |
| 1788265020 | 22.22° C | 92% | 1017.6 hPa | 0 mm | - | 61 W/m² | - |
| 1788264720 | 22.22° C | 94% | 1017.5 hPa | 0 mm | - | 52 W/m² | - |
| 1788264420 | 21.67° C | 95% | 1017.6 hPa | 0 mm | - | 41 W/m² | - |
| 1788264120 | 21.67° C | 95% | 1017.6 hPa | 0 mm | - | 31 W/m² | - |
| 1788263820 | 21.67° C | 95% | 1017.5 hPa | 0 mm | - | 29 W/m² | - |
| 1788263520 | 21.67° C | 95% | 1017.5 hPa | 0 mm | - | 26 W/m² | - |
| 1788263220 | 21.11° C | 95% | 1017.4 hPa | 0 mm | - | 22 W/m² | - |
| 1788262920 | 21.11° C | 95% | 1017.5 hPa | 0 mm | - | 19 W/m² | - |
| 1788262620 | 21.11° C | 95% | 1017.4 hPa | 0 mm | - | 17 W/m² | - |
| 1788262320 | 21.11° C | 95% | 1017.4 hPa | 0 mm | - | 14 W/m² | - |
| 1788262020 | 21.11° C | 95% | 1017.4 hPa | 0 mm | - | 11 W/m² | - |
| 1788261720 | 21.11° C | 95% | 1017.2 hPa | 0 mm | - | 11 W/m² | - |
| 1788261420 | 21.11° C | 95% | 1017.3 hPa | 0 mm | - | 9 W/m² | - |
| 1788261121 | 21.11° C | 95% | 1017.2 hPa | 0 mm | - | 7 W/m² | - |
| 1788260820 | 21.11° C | 95% | 1017.2 hPa | 0 mm | - | 5 W/m² | - |
| 1788260520 | 21.11° C | 95% | 1017.2 hPa | 0 mm | - | 3 W/m² | - |
| 1788260220 | 21.11° C | 95% | 1017.2 hPa | 0 mm | - | 2 W/m² | - |
| 1788259920 | 21.11° C | 95% | 1017.1 hPa | 0 mm | - | 1 W/m² | - |
| 1788259620 | 21.11° C | 95% | 1017 hPa | 0 mm | - | 0 W/m² | - |
| 1788259320 | 21.11° C | 95% | 1017.1 hPa | 0 mm | - | 0 W/m² | - |
| 1788259020 | 21.11° C | 95% | 1016.9 hPa | 0 mm | - | 0 W/m² | - |
| 1788258720 | 21.11° C | 95% | 1017.1 hPa | 0 mm | - | 0 W/m² | - |
| 1788258420 | 21.11° C | 95% | 1017.1 hPa | 0 mm | - | 0 W/m² | - |
* Rain latest hour (hover to see other rain measurements)
** Current wind speed in m/s (hover to see current wind gust speed)